Wind_Speed
22 22 23 24 23 25 26 27 27 27 28 26 26 28 28 28 28 29 29 29 30 29 29 29 30 31 31 32 32 32 31 31 31 31 32 32 32 32 33 33 34 34 35
23 23 24 25 25 24 25 26 27 27 28 27 26 27 29 30 30 29 30 31 31 31 30 31 32 33 33 33 34 34 35 35 34 33 34 34 34 33 34 34 35 35 36
24 24 25 25 25 26 26 26 27 28 28 28 28 29 29 29 29 29 31 32 32 32 32 33 34 35 35 35 36 35 35 35 36 35 35 36 36 35 35 36 36 37 37
24 25 25 25 25 26 26 27 27 28 28 28 28 29 28 29 29 29 30 32 33 33 33 34 35 36 36 36 37 37 37 36 37 38 38 38 37 37 37 38 38 39 39
25 25 26 27 26 26 27 27 27 27 28 28 28 29 29 29 30 30 30 31 32 33 34 34 35 36 37 38 39 38 37 37 38 39 40 40 40 41 40 40 40 40 41
25 26 26 26 26 26 26 27 28 28 28 29 29 30 30 30 30 31 31 32 32 33 34 33 34 36 37 38 39 38 38 39 40 41 41 42 42 43 42 42 42 42 42
25 26 26 26 26 26 26 28 28 29 29 30 30 30 31 31 32 32 32 32 32 33 33 34 34 36 37 38 39 40 40 41 42 43 43 44 44 45 45 45 45 45 45
26 26 26 27 26 26 28 28 29 29 30 31 32 32 32 33 33 33 33 33 33 34 34 35 35 35 36 37 39 40 40 42 44 45 45 45 46 47 48 48 48 48 47
27 27 27 28 27 27 28 29 29 30 30 31 32 32 33 33 34 34 34 34 35 35 36 36 37 37 38 39 40 41 42 43 44 45 46 46 48 49 49 50 50 50 49
28 28 29 29 29 29 29 30 30 30 31 31 32 33 34 34 35 36 36 36 36 37 37 37 38 39 40 41 42 43 44 45 46 47 47 48 49 49 50 51 51 51 51
30 30 30 31 31 31 31 31 31 32 33 33 34 34 36 37 37 38 38 38 39 40 39 40 41 42 42 43 44 45 46 47 48 49 49 50 51 51 51 52 52 53 53
31 31 31 32 33 33 33 34 34 34 35 36 37 37 38 39 39 40 41 41 41 42 42 43 44 44 45 46 46 47 48 48 49 50 51 51 52 52 52 53 53 54 54
32 32 32 33 34 35 36 37 38 37 37 38 39 40 40 41 42 42 43 43 43 44 45 45 46 47 47 48 49 49 50 51 51 51 52 53 53 53 53 54 54 55 55
34 34 35 35 36 37 38 39 40 40 40 40 41 41 42 44 45 45 45 45 45 46 47 48 48 49 50 51 51 51 52 53 53 53 53 54 54 54 54 55 55 56 56
36 37 37 38 39 39 40 41 42 43 44 43 44 44 45 45 46 46 46 47 47 48 48 49 50 50 51 52 53 53 54 54 55 55 54 55 55 55 55 55 55 55 56
39 40 40 41 41 42 42 43 44 45 46 46 46 46 47 47 48 48 48 49 49 49 50 51 52 52 53 53 54 54 55 55 55 55 55 55 54 54 55 55 55 55 56
41 42 43 43 44 44 44 45 46 46 46 47 47 47 48 48 49 50 50 51 51 52 52 53 54 54 54 55 55 56 56 55 55 55 55 54 54 54 55 55 55 55 55
43 44 45 45 45 46 46 46 47 46 46 47 47 48 49 50 51 52 52 53 53 54 54 55 55 56 55 56 56 56 56 55 55 54 54 54 53 54 54 54 53 53 53
44 45 46 46 47 47 47 47 48 48 48 48 49 49 50 51 52 53 53 54 54 55 55 55 55 55 55 55 55 56 55 55 54 53 53 53 53 53 53 53 53 53 53
45 46 46 46 47 47 48 48 49 49 50 50 51 51 51 52 52 53 54 54 54 54 54 54 54 54 54 54 54 54 54 53 53 53 53 53 53 53 54 54 54 54 53
45 45 46 47 47 48 49 49 49 50 50 51 51 51 52 52 52 52 52 52 52 52 52 52 52 52 52 52 52 52 52 52 51 51 51 52 52 52 53 53 54 53 53
45 45 46 46 47 48 49 49 49 50 51 51 51 51 51 51 51 51 51 51 50 50 50 50 49 49 50 49 49 49 49 50 50 50 50 50 51 51 52 52 52 53 53
45 46 46 46 47 48 49 49 50 50 51 51 52 52 52 51 50 50 49 48 48 48 48 48 47 47 47 47 47 48 48 48 49 49 49 49 49 50 50 50 50 51 50
45 46 46 47 47 48 49 50 51 52 52 52 51 51 51 50 49 48 47 47 46 46 46 46 46 46 46 46 46 46 47 47 48 48 47 47 47 47 47 48 48 48 47
45 46 46 47 47 48 49 50 51 52 51 50 50 49 49 48 47 46 46 46 46 45 45 45 45 45 45 45 46 46 46 46 46 46 45 45 45 45 45 45 45 45 45
44 45 45 46 47 48 48 49 50 50 50 49 48 47 46 46 45 45 45 44 44 44 44 44 44 44 44 44 45 44 44 44 44 44 43 43 42 42 42 42 42 42 41
Wind_Direction
251 250 250 249 252 250 247 247 247 248 247 246 245 244 246 247 251 252 251 250 251 252 253 253 252 251 252 254 255 255 257 260 262 263 265 267 269 270 271 272 273 274 274
251 250 250 249 251 251 250 250 248 248 247 248 247 246 246 250 251 250 251 251 252 252 254 254 253 253 253 255 257 258 259 262 264 265 266 267 269 271 271 272 273 274 275
250 250 250 250 251 251 252 250 249 249 250 251 252 252 252 251 248 249 251 251 251 252 255 256 256 255 255 257 258 260 262 263 264 265 267 267 268 270 271 272 273 274 275
253 252 253 252 251 251 251 250 251 252 254 254 255 253 253 251 249 251 253 252 252 253 256 256 257 257 257 258 259 261 263 264 265 266 267 269 269 271 271 271 272 274 275
254 253 253 254 253 252 249 251 254 255 255 255 255 254 253 252 251 252 254 255 255 256 258 259 259 259 259 260 260 263 264 266 267 268 269 270 270 272 273 272 272 273 274
254 253 255 254 254 253 252 253 255 256 256 255 255 254 256 256 256 256 256 257 257 258 259 259 260 261 262 262 262 264 265 267 268 269 270 271 272 272 274 274 273 273 274
255 254 255 253 253 252 253 254 256 258 257 256 257 257 258 260 260 260 260 259 259 260 261 262 263 262 263 263 263 264 266 268 269 270 271 272 273 274 275 275 274 274 275
256 255 255 255 256 254 254 256 259 261 258 258 259 260 261 261 260 260 260 260 261 263 264 265 264 263 264 265 266 267 268 270 271 272 272 273 274 275 275 276 275 274 275
256 257 257 257 258 257 257 258 262 262 260 259 261 262 261 261 261 261 260 260 261 263 265 264 266 267 267 268 269 269 270 272 272 273 273 274 275 275 275 276 276 276 276
257 258 259 259 259 259 259 261 263 263 261 260 262 265 263 263 263 262 262 262 263 266 267 266 267 268 268 269 270 271 272 273 273 273 274 274 275 276 277 277 277 277 277
257 257 258 259 260 261 262 262 264 265 265 264 266 267 264 263 263 263 262 263 264 266 267 268 268 269 269 270 272 273 274 275 275 274 275 275 275 276 276 277 278 278 278
258 257 258 260 261 262 264 264 266 267 267 267 268 268 266 265 264 264 263 265 266 266 267 269 270 270 271 272 273 275 276 276 277 276 276 276 276 276 276 277 277 278 278
259 258 259 261 262 263 265 267 267 268 268 268 269 268 267 265 265 265 266 267 267 267 269 270 271 272 273 273 274 276 277 277 277 277 277 277 276 276 277 277 277 278 278
258 258 259 261 263 265 267 268 267 268 269 269 270 269 269 267 266 266 268 269 269 269 270 271 272 273 274 275 275 276 277 277 278 278 277 276 277 276 277 277 277 277 277
260 259 260 262 263 265 267 268 268 269 270 270 271 271 270 270 269 269 270 270 270 270 270 272 273 274 275 275 276 276 277 278 278 278 277 276 276 277 277 277 277 277 278
261 261 262 263 264 266 267 269 270 270 270 271 271 272 272 271 271 271 271 270 270 271 272 273 274 275 276 276 277 277 278 278 277 277 277 277 277 276 276 276 277 278 279
263 263 264 265 266 266 267 268 269 271 272 272 272 272 271 271 271 272 272 272 272 272 273 274 275 276 276 277 277 277 278 278 278 278 278 277 276 276 276 277 277 278 279
264 265 266 266 267 268 269 269 270 271 272 273 273 272 272 272 272 272 273 273 273 274 274 275 276 276 277 277 277 278 278 278 278 278 277 277 276 275 276 277 278 279 279
266 267 267 268 269 270 270 271 271 272 272 273 274 275 275 274 274 274 274 274 274 274 275 275 276 277 277 277 277 277 277 278 278 277 277 276 275 275 275 276 277 278 279
267 268 268 269 270 270 271 272 272 272 273 274 275 276 276 276 276 276 276 276 276 275 275 275 276 276 277 277 277 277 277 277 277 277 276 276 276 275 276 276 278 278 279
268 269 269 270 270 270 271 272 273 273 274 274 275 276 277 277 277 277 277 277 276 276 275 276 276 276 277 277 276 276 276 276 277 277 276 276 276 276 277 278 278 278 279
269 270 270 271 272 272 272 273 274 274 275 275 276 276 277 277 277 277 277 277 276 276 276 276 276 276 277 277 276 275 275 276 276 277 277 277 277 277 278 278 279 279 279
270 271 271 272 273 273 274 274 274 275 275 276 276 276 276 277 276 276 276 276 276 276 276 276 276 276 276 276 275 275 275 276 277 278 277 278 278 277 277 278 279 279 280
270 271 271 272 272 273 273 274 274 275 276 276 276 276 276 276 275 275 275 275 276 276 276 276 276 275 275 274 275 276 276 277 278 278 278 278 279 278 278 279 279 280 280
271 272 272 273 273 274 275 275 275 276 276 276 276 276 276 275 274 274 275 275 275 275 276 276 276 275 275 274 275 276 277 277 278 278 279 278 278 278 279 280 279 279 279
273 273 274 274 275 275 276 277 276 276 276 276 276 276 275 274 274 274 275 276 276 275 276 277 276 276 276 276 277 277 277 278 279 278 278 278 277 278 279 280 280 279 279
Height
5724 5725 5727 5730 5731 5733 5736 5738 5740 5742 5745 5747 5749 5752 5754 5756 5758 5760 5762 5763 5765 5767 5768 5770 5771 5773 5775 5777 5779 5781 5782 5783 5785 5786 5787 5788 5788 5789 5789 5789 5789 5789 5789
5719 5721 5723 5725 5726 5728 5730 5732 5734 5736 5738 5740 5743 5745 5747 5749 5751 5752 5754 5756 5758 5760 5762 5763 5764 5766 5768 5770 5771 5773 5774 5776 5777 5779 5780 5780 5782 5781 5781 5781 5781 5781 5780
5715 5717 5718 5720 5722 5723 5725 5726 5728 5730 5732 5734 5736 5738 5739 5740 5742 5744 5747 5749 5751 5753 5755 5756 5757 5759 5761 5762 5764 5765 5767 5768 5769 5770 5772 5772 5773 5774 5774 5773 5773 5772 5772
5710 5712 5713 5715 5716 5718 5719 5721 5723 5724 5726 5727 5729 5731 5732 5734 5736 5738 5740 5742 5743 5745 5747 5748 5749 5751 5753 5754 5756 5757 5758 5759 5760 5761 5762 5763 5764 5765 5765 5765 5764 5763 5763
5705 5706 5708 5709 5710 5712 5714 5715 5717 5718 5720 5721 5723 5724 5726 5728 5729 5731 5733 5735 5736 5738 5740 5741 5742 5743 5745 5746 5747 5748 5749 5750 5751 5752 5753 5753 5754 5754 5755 5756 5755 5755 5754
5700 5701 5702 5703 5704 5706 5708 5710 5711 5712 5713 5715 5716 5717 5719 5721 5722 5724 5725 5727 5729 5730 5732 5733 5734 5735 5736 5737 5738 5739 5740 5741 5742 5742 5743 5743 5744 5744 5744 5745 5744 5744 5744
5694 5696 5696 5698 5699 5701 5702 5704 5705 5706 5707 5708 5709 5711 5712 5713 5715 5716 5718 5719 5721 5722 5723 5725 5725 5727 5728 5728 5729 5730 5731 5731 5732 5732 5732 5732 5733 5733 5732 5733 5733 5733 5733
5689 5690 5691 5692 5694 5695 5696 5697 5698 5699 5700 5701 5702 5703 5704 5705 5706 5708 5709 5711 5712 5713 5715 5716 5717 5718 5718 5719 5720 5720 5720 5721 5721 5721 5721 5721 5721 5720 5720 5720 5720 5720 5721
5683 5684 5685 5686 5687 5688 5689 5690 5691 5691 5692 5693 5694 5695 5697 5697 5699 5700 5701 5702 5703 5705 5706 5707 5708 5708 5709 5709 5710 5710 5710 5710 5710 5709 5709 5709 5708 5707 5707 5707 5706 5707 5707
5676 5677 5678 5680 5681 5681 5682 5683 5684 5684 5685 5685 5686 5687 5688 5689 5690 5691 5692 5693 5695 5696 5697 5697 5698 5698 5698 5699 5699 5699 5698 5698 5698 5697 5697 5696 5695 5694 5693 5693 5692 5691 5692
5670 5671 5672 5672 5673 5674 5675 5676 5676 5676 5677 5677 5678 5678 5679 5680 5681 5682 5683 5684 5685 5685 5686 5687 5687 5687 5687 5687 5687 5687 5686 5686 5685 5684 5683 5683 5682 5681 5680 5679 5678 5677 5676
5662 5663 5664 5665 5666 5666 5667 5667 5668 5668 5668 5669 5669 5670 5670 5671 5671 5672 5672 5673 5674 5674 5675 5675 5675 5675 5675 5675 5674 5674 5673 5673 5672 5671 5670 5669 5667 5667 5665 5664 5663 5662 5661
5654 5655 5656 5657 5658 5658 5659 5659 5659 5659 5659 5660 5660 5660 5660 5660 5661 5661 5662 5662 5662 5662 5662 5663 5663 5662 5662 5661 5661 5660 5660 5659 5658 5657 5655 5654 5653 5652 5650 5649 5648 5647 5646
5645 5646 5647 5648 5649 5649 5650 5649 5649 5649 5649 5650 5650 5649 5649 5650 5650 5650 5650 5649 5649 5649 5649 5649 5649 5649 5648 5647 5647 5646 5645 5644 5643 5642 5640 5639 5637 5636 5634 5633 5632 5631 5630
5636 5637 5637 5638 5639 5639 5640 5639 5639 5639 5638 5638 5638 5638 5638 5638 5637 5637 5637 5636 5636 5636 5635 5635 5635 5634 5633 5632 5631 5630 5629 5628 5627 5626 5625 5623 5621 5620 5619 5618 5617 5615 5613
5626 5626 5627 5627 5628 5628 5629 5628 5628 5628 5627 5626 5626 5625 5625 5624 5624 5623 5623 5623 5622 5621 5621 5620 5620 5619 5618 5617 5615 5614 5613 5612 5611 5610 5609 5607 5606 5604 5603 5602 5600 5599 5597
5614 5615 5616 5616 5616 5616 5616 5616 5616 5615 5615 5614 5613 5612 5612 5611 5610 5609 5609 5608 5607 5607 5606 5606 5605 5604 5603 5601 5600 5598 5597 5596 5595 5594 5593 5591 5590 5588 5587 5586 5585 5584 5582
5603 5603 5604 5604 5604 5604 5603 5603 5603 5602 5601 5601 5600 5599 5598 5597 5596 5595 5594 5593 5592 5592 5591 5590 5589 5587 5586 5585 5583 5582 5581 5580 5579 5578 5576 5575 5574 5573 5571 5570 5570 5569 5567
5591 5591 5591 5591 5591 5591 5590 5590 5590 5589 5588 5587 5586 5585 5584 5583 5582 5581 5579 5578 5577 5576 5575 5574 5573 5571 5570 5568 5567 5565 5564 5564 5563 5562 5561 5559 5558 5558 5556 5555 5555 5554 5553
5578 5578 5578 5578 5578 5577 5577 5577 5576 5575 5574 5573 5572 5570 5569 5567 5566 5565 5564 5562 5561 5560 5559 5558 5557 5555 5554 5552 5551 5549 5548 5548 5547 5547 5546 5544 5543 5542 5540 5539 5539 5539 5538
5565 5565 5565 5565 5564 5564 5563 5563 5562 5561 5560 5558 5557 5556 5554 5552 5551 5549 5548 5546 5545 5544 5543 5542 5541 5540 5538 5537 5535 5534 5532 5532 5532 5531 5531 5529 5527 5526 5525 5524 5523 5523 5521
5552 5552 5552 5552 5551 5550 5549 5549 5548 5546 5545 5544 5543 5541 5539 5537 5535 5534 5532 5531 5530 5529 5528 5527 5526 5525 5523 5522 5520 5519 5517 5516 5516 5516 5516 5514 5513 5511 5510 5509 5508 5507 5506
5539 5539 5538 5538 5537 5536 5535 5534 5533 5532 5531 5529 5528 5526 5524 5522 5520 5519 5517 5516 5515 5514 5513 5512 5512 5511 5509 5508 5506 5505 5504 5502 5502 5502 5501 5500 5498 5497 5496 5495 5493 5492 5491
5526 5526 5525 5525 5524 5523 5521 5520 5519 5517 5516 5515 5513 5511 5509 5508 5506 5504 5503 5502 5501 5500 5499 5498 5497 5497 5496 5494 5493 5491 5490 5489 5488 5487 5487 5486 5485 5483 5482 5481 5480 5478 5477
5513 5512 5512 5511 5510 5509 5507 5505 5503 5502 5501 5499 5498 5496 5495 5493 5492 5491 5490 5489 5488 5486 5486 5485 5484 5483 5483 5481 5480 5478 5477 5476 5475 5474 5474 5473 5472 5471 5469 5468 5466 5465 5463
5500 5499 5498 5497 5496 5494 5493 5491 5489 5487 5486 5485 5483 5482 5481 5479 5478 5477 5477 5476 5475 5474 5473 5471 5470 5469 5469 5468 5467 5466 5464 5463 5462 5461 5461 5460 5459 5458 5456 5455 5453 5452 5451